Regional Weather Roundup
Issued by NWS

Home | Current Version | Previous Version | Graphics & Text | Print | Product List | Glossary Off
Versions: 1 2 3 4 5 6 7 8 9 10 11 12 13 14 15 16 17 18 19 20 21 22 23 24 25 26 27 28 29 30 31 32 33 34 35 36 37 38 39 40 41 42 43 44 45 46 47 48 49 50

000
ASUS43 KMKX 242000
RWRWI

WISCONSIN REGIONAL WEATHER ROUNDUP
NATIONAL WEATHER SERVICE MILWAUKEE/SULLIVAN WI
300 PM CDT TUE MAY 24 2016

NOTE: "FAIR" INDICATES FEW OR NO CLOUDS BELOW 12,000 FEET WITH NO
SIGNIFICANT WEATHER AND/OR OBSTRUCTIONS TO VISIBILITY.

WIZ001-002-006>008-014>016-023>028-242100-
NORTHWEST WISCONSIN

CITY           SKY/WX    TMP DP  RH WIND       PRES   REMARKS
SUPERIOR ARPT  SUNNY     73  59  61 E9        29.88S
ASHLAND        PTSUNNY   62  61  96 N14       29.89R
HAYWARD        PTSUNNY   76  59  55 VRB7      29.90R
SIREN          PTSUNNY   78  59  51 W12       29.90S
CUMBERLAND     MOSUNNY   79  52  38 W15       29.90S
RICE LAKE      MOSUNNY   79  52  39 W10       29.91S
CHETEK         SUNNY     79  55  42 NW5       29.90S HX  80
LADYSMITH      CLOUDY    76  61  58 NW6       29.92S
EAU CLAIRE     NOT AVBL
MENOMONIE      MOSUNNY   81  64  56 SW6       29.89F HX  83
NEW RICHMOND   SUNNY     80  52  36 W10       29.90S HX  80
OSCEOLA        MOSUNNY   81  58  45 W7        29.92S HX  81
$$

WIZ003>005-009-010-017-018-242100-
NORTH CENTRAL WISCONSIN

CITY           SKY/WX    TMP DP  RH WIND       PRES   REMARKS
MANITOWISH WTR CLOUDY    72  63  74 S7        29.90S
ARBOR VITAE    CLOUDY    72  65  77 CALM      29.91F
WOODRUFF       CLOUDY    72  65  77 CALM      29.91F
RHINELANDER    MOSUNNY   74  59  59 S8G17     29.92F
EAGLE RIVER      N/A     73  56  56 W13G21    29.91S
LAND O LAKES   CLOUDY    73  60  65 SW5       29.92F
PHILLIPS       MOSUNNY   75  58  56 SW12      29.90S
TOMAHAWK       CLOUDY    74  61  62 SW7       29.92S
MEDFORD        CLOUDY    72  62  69 SW7       29.93S
MERRILL        CLOUDY    73  61  64 SW10G16   29.93S
$$

WIZ029-030-035-036-043>047-242100-
CENTRAL WISCONSIN

CITY           SKY/WX    TMP DP  RH WIND       PRES   REMARKS
WAUSAU         CLOUDY    76  61  59 S7        29.90F
MOSINEE        MOSUNNY   73  64  73 SW7       29.93F
MARSHFIELD     PTSUNNY   80  57  45 NW15      29.91S HX  80
STEVENS POINT  CLOUDY    76  58  53 SW12      29.92F
WAUPACA        MOSUNNY   83  59  44 SW10G18   29.90F HX  83
WAUTOMA        CLOUDY    80  59  48 W10       29.91F HX  81
WISC RAPIDS    CLOUDY    80  55  42 W12       29.92F HX  80
CAMP DOUGLAS   NOT AVBL
$$

WIZ011>013-019>022-031-037>040-048>050-242100-
NORTHEAST WISCONSIN

CITY           SKY/WX    TMP DP  RH WIND       PRES   REMARKS
ANTIGO         PTSUNNY   72  62  70 SW12      29.93F
SHAWANO        MOSUNNY   79  59  50 SW6       29.90F HX  80
OCONTO         PTSUNNY   78  62  57 SW12      29.88F HX  80
STURGEON BAY   NOT AVBL
GREEN BAY      CLOUDY    83  57  41 SW16G25   29.88F HX  82
MANITOWOC      NOT AVBL
APPLETON       PTSUNNY   81  54  39 SW16G24   29.89F HX  80
CLINTONVILLE   PTSUNNY   81  55  41 SW14G20   29.89F HX  80
OSHKOSH        CLOUDY    81  58  45 SW12G24   29.90F HX  81
$$

WIZ032>034-041-042-053>061-242100-
SOUTHWEST WISCONSIN

CITY           SKY/WX    TMP DP  RH WIND       PRES   REMARKS
LA CROSSE      PTSUNNY   80  59  48 E6        29.89F HX  81
SPARTA         CLOUDY    79  60  52 NW7       29.92F HX  80
VIROQUA        PTSUNNY   79  56  45 W7        29.93F HX  80
BOSCOBEL       MOSUNNY   82  60  47 W3        29.91F HX  82
PRAIRIE DU CHI PTSUNNY   79  56  44 SE3       29.90S HX  80
PLATTEVILLE    PTSUNNY   79  61  54 SW13      29.94S HX  80
$$

WIZ056-057-062-063-064-067-068-242100-
SOUTH CENTRAL WISCONSIN

CITY           SKY/WX    TMP DP  RH WIND       PRES   REMARKS
REEDSBURG      PTSUNNY   81  59  47 S5        29.91F HX  82
BARABOO/DELLS  PTSUNNY   82  54  38 W12       29.92F HX  81
LONE ROCK      NOT AVBL
MINERAL POINT  MOSUNNY   79  59  50 SW10      29.94F HX  80
MADISON        CLOUDY    78  59  51 VRB6      29.93F
MIDDLETON      CLOUDY    78  60  53 W6        29.93F
WATERTOWN      CLOUDY    80  63  55 SW9       29.93F HX  81
MONROE         MOSUNNY   81  57  44 SW7G18    29.94F HX  81
JANESVILLE     PTSUNNY   82  57  42 SW9       29.93S HX  82
$$

WIZ051-052-058>065-066-070>072-242100-
SOUTHEAST WISCONSIN

CITY           SKY/WX    TMP DP  RH WIND       PRES   REMARKS
MILWAUKEE      PTSUNNY   82  56  40 SW14      29.92F HX  82
WAUKESHA       MOSUNNY   79  61  53 NW8       29.94F HX  80
MILWAUKEE/TIMM PTSUNNY   81  52  36 W14       29.93F HX  80
RACINE         PTSUNNY   80  56  43 SE12      29.94F HX  80
BURLINGTON     MOSUNNY   86  54  33 S8G23     29.93F HX  84
KENOSHA        MOSUNNY   85  58  39 SW9G21    29.93F HX  84
FOND DU LAC    MOSUNNY   81  58  45 SW15      29.91F HX  81
SHEBOYGAN      CLOUDY    72  65  78 S10       29.94R THUNDER
WEST BEND      PTSUNNY   72  64  78 W7        29.94F
JUNEAU         MOSUNNY   78  62  57 SW8       29.95F HX  80
$$

LSZ147-162-242100-
LAKE SUPERIOR

STATION/POSITION TIME  TEMP    WIND        PRES    WAVE
                       AIR SEA DIR/SP/G            HT/PER
                 (UTC) (F)     (DEG/KT/KT) (MB)    (FT/S)
W MID LAKE BUOY  1850   47 38  340/  2/  4 1013.4R   0
DEVILS ISLAND    1900   52      30/  8/  9 1013.0F
SAXON HARBOR     1900   60     310/  2/  3 1011.2
$$

LMZ867-665-643>646-242100-
LAKE MICHIGAN

STATION/POSITION TIME  TEMP    WIND        PRES    WAVE
                       AIR SEA DIR/SP/G            HT/PER
                 (UTC) (F)     (DEG/KT/KT) (MB)    (FT/S)
CHAMBERS ISLAND  1900   72     170/  5/  8 1012.5R
N MID LAKE BUOY  1850   48 45  180/  8/ 10 1012.6F   1/ 4
NORTHPORT PIER   1900   53     140/ 10/ 12 1012.5S
SISTER BAY       1919          300/  5/  7   N/A
ALGOMA LAKESHORE 1917          230/ 12/ 14   N/A
KEWAUNEE LAKESHO 1900   54     180/ 13/ 14 1012.8R
SHEBOYGAN LAKESH 1900   59     170/ 21/ 21 1013.5F
PORT WASHINGTON  1900   62     180/  4/  8 1014.2
S MID LAKE BUOY  1850   54 48  150/ 10/ 12 1015.1F   1/ 3
KENOSHA   LAKESH 1900   65     160/ 10/ 15 1013.9F
$$

TC  - TEMPERATURE IN CELSIUS
VSB - VISIBILITY IN STATUTE MILES
WCI - WIND CHILL INDEX
HX  - HEAT INDEX





USA.gov is the U.S. government's official web portal to all federal, state and local government web resources and services.